^^
Grace C. Lehan Memorial Weather Station Historical Data
Daily Summary for March 4, 2021 Units:  Metric    English   Both
Daily Weekly Monthly Yearly
  High: Low: Average:
Temperature: 5.6 °C -0.1 °C 1.8 °C
Dew Point: 1.6 °C -1.1 °C -0.1 °C
Humidity: 100% 71% 87%
Wind Speed: 7.2km/h 0km/h 1.8km/h
Wind Gust: 19.3km/h - -
Wind- - West
Pressure: 1015.8 hPa 1012.8 hPa -
Precipitation: 0.25 mm    
 
 
Tabular Data for March 4, 2021
Time Temperature Dew Point Pressure Wind Wind Speed Wind Gust Humidity Rainfall Rate (Hourly) solar
00:04 0.7 °C -0.2 °C 1013.8 hPa NNW 3.2 km/h 14.5 km/h 94% 0 mm 0 W/m2
00:09 0.7 °C -0.2 °C 1013.8 hPa NNW 2.3 km/h 8 km/h 94% 0 mm 0 W/m2
00:14 0.7 °C -0.2 °C 1013.8 hPa North 2.7 km/h 8 km/h 94% 0 mm 0 W/m2
00:19 0.7 °C -0.2 °C 1013.8 hPa NW 1.4 km/h 9.7 km/h 94% 0 mm 0 W/m2
00:24 0.7 °C -0.2 °C 1013.8 hPa NNW 1.8 km/h 9.7 km/h 94% 0 mm 0 W/m2
00:29 0.7 °C -0.2 °C 1013.8 hPa NNW 2.4 km/h 11.3 km/h 94% 0 mm 0 W/m2
00:34 0.7 °C -0.2 °C 1013.8 hPa NNW 3.2 km/h 11.3 km/h 94% 0 mm 0 W/m2
00:39 0.7 °C -0.2 °C 1013.8 hPa NNW 2.7 km/h 11.3 km/h 94% 0 mm 0 W/m2
00:44 0.6 °C -0.2 °C 1013.8 hPa NNW 4.5 km/h 11.3 km/h 94% 0 mm 0 W/m2
00:49 0.6 °C -0.2 °C 1013.8 hPa NNW 1.4 km/h 11.3 km/h 94% 0 mm 0 W/m2
00:54 0.6 °C -0.2 °C 1013.8 hPa NNW 1.1 km/h 11.3 km/h 94% 0 mm 0 W/m2
00:59 0.6 °C -0.2 °C 1013.8 hPa NNW 2.1 km/h 11.3 km/h 94% 0 mm 0 W/m2
01:04 0.6 °C -0.2 °C 1013.8 hPa NNW 2.9 km/h 11.3 km/h 94% 0 mm 0 W/m2
01:09 0.6 °C -0.2 °C 1013.8 hPa NNW 2.1 km/h 14.5 km/h 94% 0 mm 0 W/m2
01:14 0.6 °C -0.2 °C 1014.1 hPa NNW 1.1 km/h 14.5 km/h 94% 0 mm 0 W/m2
01:19 0.6 °C -0.2 °C 1014.1 hPa NNW 2.6 km/h 14.5 km/h 94% 0 mm 0 W/m2
01:24 0.6 °C -0.3 °C 1014.1 hPa NNW 1.4 km/h 14.5 km/h 94% 0 mm 0 W/m2
01:29 0.6 °C -0.3 °C 1014.1 hPa North 1.4 km/h 14.5 km/h 94% 0 mm 0 W/m2
01:34 0.6 °C -0.3 °C 1014.1 hPa NNW 1.1 km/h 14.5 km/h 94% 0 mm 0 W/m2
01:39 0.6 °C -0.3 °C 1014.1 hPa NNW 2.6 km/h 11.3 km/h 94% 0 mm 0 W/m2
01:44 0.6 °C -0.2 °C 1013.8 hPa NNW 2.1 km/h 11.3 km/h 94% 0 mm 0 W/m2
01:49 0.6 °C -0.3 °C 1014.1 hPa NNW 1.9 km/h 11.3 km/h 94% 0 mm 0 W/m2
01:54 0.6 °C -0.3 °C 1014.1 hPa NNW 4.5 km/h 12.9 km/h 94% 0 mm 0 W/m2
01:59 0.5 °C -0.4 °C 1014.1 hPa NNW 3.7 km/h 16.1 km/h 93.6% 0 mm 0 W/m2
02:04 0.5 °C -0.5 °C 1014.1 hPa NNW 3.2 km/h 16.1 km/h 93% 0 mm 0 W/m2
02:09 0.5 °C -0.5 °C 1014.1 hPa NNW 1.8 km/h 12.9 km/h 93% 0 mm 0 W/m2
02:14 0.4 °C -0.6 °C 1014.1 hPa NNW 4.3 km/h 12.9 km/h 93% 0 mm 0 W/m2
02:19 0.4 °C -0.6 °C 1014.1 hPa NNW 4.8 km/h 14.5 km/h 93% 0 mm 0 W/m2
02:24 0.4 °C -0.6 °C 1014.1 hPa North 3.4 km/h 14.5 km/h 93% 0 mm 0 W/m2
02:29 0.4 °C -0.6 °C 1014.1 hPa North 2.4 km/h 14.5 km/h 93% 0 mm 0 W/m2
02:34 0.4 °C -0.6 °C 1014.1 hPa North 1.8 km/h 14.5 km/h 93% 0 mm 0 W/m2
02:39 0.4 °C -0.6 °C 1014.1 hPa NNW 3.2 km/h 9.7 km/h 93% 0 mm 0 W/m2
02:44 0.4 °C -0.6 °C 1014.1 hPa NNW 4.2 km/h 14.5 km/h 93% 0 mm 0 W/m2
02:49 0.4 °C -0.6 °C 1014.1 hPa North 1.8 km/h 14.5 km/h 93% 0 mm 0 W/m2
02:54 0.4 °C -0.6 °C 1014.1 hPa NNE 1.3 km/h 14.5 km/h 93% 0 mm 0 W/m2
02:59 0.4 °C -0.6 °C 1014.1 hPa NNW 2.1 km/h 14.5 km/h 93% 0 mm 0 W/m2
03:04 0.4 °C -0.6 °C 1014.1 hPa North 0.6 km/h 14.5 km/h 93% 0 mm 0 W/m2
03:09 0.5 °C -0.5 °C 1014.1 hPa North 3.9 km/h 11.3 km/h 93% 0 mm 0 W/m2
03:14 0.5 °C -0.5 °C 1014.1 hPa North 1.8 km/h 11.3 km/h 93% 0 mm 0 W/m2
03:19 0.5 °C -0.5 °C 1013.8 hPa North 2.9 km/h 11.3 km/h 93% 0 mm 0 W/m2
03:24 0.5 °C -0.5 °C 1013.8 hPa North 1.8 km/h 11.3 km/h 93% 0 mm 0 W/m2
03:29 0.5 °C -0.5 °C 1014.1 hPa NNW 2.3 km/h 11.3 km/h 93% 0 mm 0 W/m2
03:34 0.5 °C -0.5 °C 1014.1 hPa NNW 3.9 km/h 11.3 km/h 93% 0 mm 0 W/m2
03:39 0.5 °C -0.5 °C 1014.1 hPa NNW 3.2 km/h 16.1 km/h 93% 0 mm 0 W/m2
03:44 0.5 °C -0.5 °C 1014.1 hPa NNW 0.5 km/h 16.1 km/h 93% 0 mm 0 W/m2
03:49 0.5 °C -0.5 °C 1014.1 hPa North 2.4 km/h 16.1 km/h 93% 0 mm 0 W/m2
03:54 0.5 °C -0.5 °C 1014.1 hPa NNW 5.5 km/h 16.1 km/h 93% 0 mm 0 W/m2
03:59 0.5 °C -0.5 °C 1014.1 hPa NNW 0.6 km/h 16.1 km/h 93% 0 mm 0 W/m2
04:00 0.4 °C -0.6 °C 1014.1 hPa Calm   16.1 km/h 93% 0 mm 0 W/m2
04:09 0.4 °C -0.6 °C 1014.1 hPa NNW 1 km/h 8 km/h 93% 0 mm 0 W/m2
04:14 0.5 °C -0.5 °C 1014.1 hPa Calm   8 km/h 93% 0 mm 0 W/m2
04:19 0.5 °C -0.5 °C 1014.1 hPa NNW 1.6 km/h 8 km/h 93% 0 mm 0 W/m2
04:24 0.5 °C -0.5 °C 1014.1 hPa NNW 2.9 km/h 11.3 km/h 93% 0 mm 0 W/m2
04:29 0.5 °C -0.5 °C 1014.4 hPa NNW 2.4 km/h 11.3 km/h 93% 0 mm 0 W/m2
04:34 0.4 °C -0.6 °C 1014.4 hPa NNW 1.8 km/h 11.3 km/h 93% 0 mm 0 W/m2
04:39 0.4 °C -0.6 °C 1014.4 hPa NNW 1.3 km/h 8 km/h 93% 0 mm 0 W/m2
04:44 0.4 °C -0.6 °C 1014.4 hPa NNW 3.7 km/h 14.5 km/h 93% 0 mm 0 W/m2
04:49 0.4 °C -0.6 °C 1014.4 hPa NNW 2.1 km/h 14.5 km/h 93% 0 mm 0 W/m2
04:54 0.4 °C -0.6 °C 1014.4 hPa NNW 2.3 km/h 14.5 km/h 93% 0 mm 0 W/m2
04:59 0.4 °C -0.6 °C 1014.4 hPa NNW 1.9 km/h 14.5 km/h 93% 0 mm 0 W/m2
05:04 0.3 °C -0.7 °C 1014.4 hPa NNW 4.2 km/h 14.5 km/h 93% 0 mm 0 W/m2
05:09 0.3 °C -0.7 °C 1014.4 hPa NNW 3.5 km/h 9.7 km/h 93% 0 mm 0 W/m2
05:14 0.3 °C -0.7 °C 1014.4 hPa North 3.4 km/h 11.3 km/h 93% 0 mm 0 W/m2
05:19 0.3 °C -0.7 °C 1014.4 hPa NNW 3.7 km/h 11.3 km/h 93% 0 mm 0 W/m2
05:24 0.3 °C -0.7 °C 1014.4 hPa NNW 2.4 km/h 11.3 km/h 93% 0 mm 0 W/m2
05:29 0.3 °C -0.7 °C 1014.4 hPa NNW 1.6 km/h 11.3 km/h 93% 0 mm 0 W/m2
05:34 0.3 °C -0.7 °C 1014.4 hPa NNW 3.1 km/h 11.3 km/h 93% 0 mm 0 W/m2
05:39 0.3 °C -0.7 °C 1014.4 hPa NNW 3.9 km/h 9.7 km/h 93% 0 mm 0 W/m2
05:44 0.3 °C -0.6 °C 1014.4 hPa NNW 1.4 km/h 9.7 km/h 93.8% 0 mm 0 W/m2
05:49 0.3 °C -0.6 °C 1014.4 hPa NNW 0.6 km/h 9.7 km/h 94% 0 mm 0 W/m2
05:54 0.3 °C -0.6 °C 1014.4 hPa NNW 1.8 km/h 9.7 km/h 94% 0 mm 0 W/m2
05:59 0.3 °C -0.6 °C 1014.4 hPa North 2.3 km/h 11.3 km/h 94% 0 mm 0 W/m2
06:04 0.3 °C -0.6 °C 1014.4 hPa NNW 0.2 km/h 11.3 km/h 94% 0 mm 0 W/m2
06:09 0.3 °C -0.6 °C 1014.4 hPa NNW 0.5 km/h 9.7 km/h 94% 0 mm 0 W/m2
06:14 0.3 °C -0.6 °C 1014.4 hPa NNW 0.6 km/h 9.7 km/h 94% 0 mm 0 W/m2
06:19 0.3 °C -0.6 °C 1014.4 hPa NNW 0.8 km/h 9.7 km/h 94% 0 mm 0 W/m2
06:24 0.3 °C -0.6 °C 1014.4 hPa North 1 km/h 9.7 km/h 94% 0 mm 0 W/m2
06:29 0.3 °C -0.6 °C 1014.4 hPa NNW 1.1 km/h 11.3 km/h 94% 0 mm 0 W/m2
06:34 0.3 °C -0.6 °C 1014.4 hPa NNW 1.4 km/h 11.3 km/h 94% 0 mm 0 W/m2
06:39 0.3 °C -0.6 °C 1014.4 hPa North 0.3 km/h 6.4 km/h 94% 0 mm 0 W/m2
06:44 0.3 °C -0.6 °C 1014.4 hPa North 0.8 km/h 8 km/h 94% 0 mm 0 W/m2
06:49 0.3 °C -0.6 °C 1014.4 hPa North 0.8 km/h 9.7 km/h 94% 0 mm 0 W/m2
06:54 0.2 °C -0.6 °C 1014.4 hPa North 2.1 km/h 9.7 km/h 94% 0 mm 0 W/m2
06:59 0.2 °C -0.6 °C 1014.4 hPa NNW 1.4 km/h 9.7 km/h 94% 0 mm 0 W/m2
07:04 0.2 °C -0.6 °C 1014.1 hPa NNW 0.6 km/h 9.7 km/h 94% 0 mm 0 W/m2
07:09 0.2 °C -0.6 °C 1014.1 hPa Calm   4.8 km/h 94% 0 mm 0 W/m2
07:14 0.2 °C -0.6 °C 1014.1 hPa North 0.5 km/h 6.4 km/h 94% 0 mm 0 W/m2
07:19 0.2 °C -0.7 °C 1014.4 hPa NNW 1.1 km/h 9.7 km/h 94% 0 mm 0 W/m2
07:24 0.2 °C -0.7 °C 1014.4 hPa NW 2.7 km/h 9.7 km/h 94% 0 mm 0 W/m2
07:29 0.2 °C -0.7 °C 1014.4 hPa NNW 0.2 km/h 9.7 km/h 94% 0 mm 0 W/m2
07:34 0.1 °C -0.7 °C 1014.8 hPa NNW 0.8 km/h 9.7 km/h 94% 0 mm 0 W/m2
07:39 0.1 °C -0.8 °C 1014.8 hPa NNW 0.2 km/h 4.8 km/h 94% 0 mm 0 W/m2
07:44 0 °C -0.8 °C 1014.8 hPa NNW 3.9 km/h 14.5 km/h 94% 0 mm 5 W/m2
07:49 0 °C -0.9 °C 1014.8 hPa NNW 3.7 km/h 14.5 km/h 94% 0 mm 7 W/m2
07:54 -0.1 °C -0.9 °C 1015.1 hPa NNW 1.9 km/h 14.5 km/h 94% 0 mm 9 W/m2
07:59 0 °C -0.8 °C 1015.1 hPa NNW 3.9 km/h 14.5 km/h 94.6% 0 mm 9 W/m2
08:00 0 °C 0 °C 1014.8 hPa Calm   14.5 km/h 100% 0 mm 9 W/m2
08:09 0.1 °C -0.8 °C 1015.1 hPa NNW 2.6 km/h 11.3 km/h 94% 0 mm 7 W/m2
08:14 0.1 °C -0.8 °C 1015.1 hPa NNW 5 km/h 17.7 km/h 94% 0 mm 5 W/m2
08:19 0.1 °C -0.8 °C 1015.5 hPa North 5.3 km/h 17.7 km/h 94% 0 mm 7 W/m2
08:24 0.1 °C -0.8 °C 1015.5 hPa NNW 3.4 km/h 17.7 km/h 94% 0 mm 16 W/m2
08:29 0.1 °C -0.8 °C 1015.1 hPa NW 1.4 km/h 17.7 km/h 93.7% 0 mm 16 W/m2
08:34 0.1 °C -0.9 °C 1015.5 hPa NNW 1 km/h 17.7 km/h 93% 0 mm 39 W/m2
08:39 0.2 °C -0.8 °C 1015.5 hPa NNW 0.8 km/h 9.7 km/h 93.2% 0 mm 40 W/m2
08:44 0.4 °C -0.4 °C 1015.5 hPa NNW 3.7 km/h 11.3 km/h 94% 0 mm 69 W/m2
08:49 0.6 °C -0.2 °C 1015.5 hPa NNW 0.6 km/h 11.3 km/h 94% 0 mm 98 W/m2
08:54 0.9 °C 0.1 °C 1015.5 hPa NNW 2.6 km/h 11.3 km/h 94% 0 mm 97 W/m2
08:59 1.1 °C 0.1 °C 1015.5 hPa North 2.3 km/h 11.3 km/h 93.1% 0 mm 49 W/m2
09:04 1.3 °C 0.3 °C 1015.5 hPa NNW 3.4 km/h 12.9 km/h 92.8% 0 mm 79 W/m2
09:09 1.4 °C 0.3 °C 1015.8 hPa North 1.4 km/h 12.9 km/h 92% 0 mm 83 W/m2
09:14 1.6 °C 0.5 °C 1015.8 hPa North 0.5 km/h 12.9 km/h 92% 0 mm 83 W/m2
09:19 1.8 °C 0.6 °C 1015.8 hPa NNE 0.6 km/h 12.9 km/h 91.1% 0 mm 111 W/m2
09:24 2 °C 0.6 °C 1015.8 hPa NE 2.4 km/h 12.9 km/h 90.3% 0 mm 67 W/m2
09:29 2.1 °C 0.5 °C 1015.8 hPa ENE 3.9 km/h 14.5 km/h 89.5% 0 mm 141 W/m2
09:34 2.1 °C 0.3 °C 1015.8 hPa NE 2.6 km/h 14.5 km/h 88% 0 mm 155 W/m2
09:39 2.2 °C 0.4 °C 1015.8 hPa NE 2.7 km/h 9.7 km/h 88% 0.25 mm 169 W/m2
09:44 2.2 °C 0.4 °C 1015.5 hPa North 3.9 km/h 9.7 km/h 88% 0.25 mm 167 W/m2
09:49 2.3 °C 0.4 °C 1015.5 hPa NNE 6.1 km/h 16.1 km/h 87.4% 0.25 mm 135 W/m2
09:54 2.3 °C 0.3 °C 1015.5 hPa NNE 1.6 km/h 16.1 km/h 86.1% 0.25 mm 98 W/m2
09:59 2.4 °C 0.3 °C 1015.5 hPa NE 4 km/h 16.1 km/h 86% 0.25 mm 98 W/m2
10:04 2.4 °C 0.3 °C 1015.5 hPa NE 2.3 km/h 16.1 km/h 86% 0.25 mm 123 W/m2
10:09 2.5 °C 0.3 °C 1015.5 hPa NE 2.1 km/h 9.7 km/h 85.7% 0.25 mm 188 W/m2
10:14 2.6 °C 0.3 °C 1015.5 hPa ENE 4.2 km/h 11.3 km/h 85% 0.25 mm 287 W/m2
10:19 2.7 °C 0.4 °C 1015.5 hPa ENE 3.1 km/h 11.3 km/h 85% 0.25 mm 309 W/m2
10:24 2.9 °C 0.7 °C 1015.5 hPa North 1.3 km/h 11.3 km/h 85% 0.25 mm 241 W/m2
10:29 3.2 °C 0.9 °C 1015.5 hPa NNW 0.2 km/h 11.3 km/h 85% 0.25 mm 281 W/m2
10:34 3.3 °C 0.8 °C 1015.1 hPa NNE 3.1 km/h 11.3 km/h 83.7% 0.25 mm 315 W/m2
10:39 3.5 °C 0.9 °C 1015.1 hPa NE 1.3 km/h 11.3 km/h 83% 0.25 mm 469 W/m2
10:44 3.9 °C 1.4 °C 1015.1 hPa NE 0.8 km/h 11.3 km/h 83.6% 0.25 mm 499 W/m2
10:49 4.4 °C 1.6 °C 1015.1 hPa NE 4.5 km/h 11.3 km/h 81.8% 0.25 mm 475 W/m2
10:54 4.7 °C 1.6 °C 1015.1 hPa North 2.3 km/h 11.3 km/h 80% 0.25 mm 366 W/m2
10:59 4.9 °C 1.5 °C 1015.1 hPa NNE 3.7 km/h 11.3 km/h 78.5% 0.25 mm 213 W/m2
11:04 4.8 °C 1 °C 1014.8 hPa NE 3.2 km/h 17.7 km/h 76.3% 0.25 mm 241 W/m2
11:09 4.7 °C 1 °C 1014.8 hPa NE 1.3 km/h 17.7 km/h 77.1% 0 mm 322 W/m2
11:14 4.8 °C 1.4 °C 1015.1 hPa North 1.6 km/h 17.7 km/h 78.8% 0 mm 253 W/m2
11:19 4.9 °C 1.4 °C 1014.8 hPa North 4.7 km/h 17.7 km/h 78% 0 mm 218 W/m2
11:24 4.9 °C 1.3 °C 1014.8 hPa North 4.3 km/h 17.7 km/h 77.2% 0 mm 211 W/m2
11:29 4.8 °C 1.1 °C 1014.8 hPa NNW 3.2 km/h 17.7 km/h 76.8% 0 mm 181 W/m2
11:34 4.7 °C 1.1 °C 1014.8 hPa North 1.4 km/h 17.7 km/h 77% 0 mm 162 W/m2
11:39 4.6 °C 0.9 °C 1014.4 hPa North 1.9 km/h 9.7 km/h 77% 0 mm 183 W/m2
11:44 4.5 °C 0.9 °C 1014.4 hPa NNW 0.6 km/h 9.7 km/h 77.6% 0 mm 183 W/m2
11:49 4.4 °C 0.9 °C 1014.4 hPa ENE 0.6 km/h 9.7 km/h 78% 0 mm 179 W/m2
11:54 4.4 °C 0.9 °C 1014.4 hPa NNE 1.9 km/h 9.7 km/h 78% 0 mm 179 W/m2
11:59 4.3 °C 0.8 °C 1014.4 hPa North 3.4 km/h 11.3 km/h 78.1% 0 mm 113 W/m2
12:00 4.3 °C 0.8 °C 1014.1 hPa Calm   11.3 km/h 78% 0 mm 62 W/m2
12:09 4.7 °C 1.4 °C 1014.1 hPa NW 5.6 km/h 16.1 km/h 79.7% 0 mm 257 W/m2
12:14 4.7 °C 1.3 °C 1014.1 hPa NNW 7.2 km/h 16.1 km/h 78.3% 0 mm 105 W/m2
12:19 4.9 °C 1.4 °C 1014.1 hPa NNW 5.5 km/h 17.7 km/h 78% 0 mm 557 W/m2
12:24 5.1 °C 1.4 °C 1013.8 hPa NNW 3.9 km/h 17.7 km/h 77.2% 0 mm 292 W/m2
12:29 5.2 °C 1.5 °C 1013.8 hPa North 1.6 km/h 17.7 km/h 76.8% 0 mm 232 W/m2
12:34 5.3 °C 1.6 °C 1013.8 hPa North 0.8 km/h 17.7 km/h 76.6% 0 mm 199 W/m2
12:39 5.4 °C 1.5 °C 1013.8 hPa North 2.4 km/h 6.4 km/h 75.5% 0 mm 227 W/m2
12:44 5.5 °C 1.4 °C 1013.4 hPa NNW 1.9 km/h 14.5 km/h 74.8% 0 mm 220 W/m2
12:49 5.5 °C 1.2 °C 1013.4 hPa NNW 3.9 km/h 14.5 km/h 74% 0 mm 214 W/m2
12:54 5.4 °C 1.1 °C 1013.4 hPa NNE 1.4 km/h 16.1 km/h 73.6% 0 mm 221 W/m2
12:59 5.4 °C 0.9 °C 1013.4 hPa NE 4.7 km/h 16.1 km/h 72.8% 0 mm 204 W/m2
13:04 5.3 °C 0.9 °C 1013.4 hPa NNE 5 km/h 17.7 km/h 73.4% 0 mm 230 W/m2
13:09 5.3 °C 1.1 °C 1013.4 hPa NNW 3.9 km/h 17.7 km/h 74% 0 mm 221 W/m2
13:14 5.4 °C 1.2 °C 1013.4 hPa North 5.1 km/h 17.7 km/h 73.9% 0 mm 244 W/m2
13:19 5.6 °C 0.9 °C 1013.1 hPa North 3.5 km/h 17.7 km/h 72% 0 mm 227 W/m2
13:24 5.6 °C 0.9 °C 1013.1 hPa North 3.4 km/h 17.7 km/h 71.6% 0 mm 227 W/m2
13:29 5.6 °C 0.9 °C 1013.4 hPa North 3.9 km/h 17.7 km/h 71.7% 0 mm 139 W/m2
13:34 5.5 °C 0.8 °C 1013.4 hPa NNW 4.5 km/h 17.7 km/h 71.6% 0 mm 155 W/m2
13:39 5.3 °C 0.7 °C 1013.1 hPa NNE 2.1 km/h 11.3 km/h 72.1% 0 mm 158 W/m2
13:44 5.3 °C 0.8 °C 1013.1 hPa NNW 3.4 km/h 17.7 km/h 72.8% 0 mm 181 W/m2
13:49 5.2 °C 0.8 °C 1013.1 hPa NNW 6 km/h 17.7 km/h 73% 0 mm 155 W/m2
13:54 5.2 °C 0.8 °C 1013.1 hPa North 4.2 km/h 17.7 km/h 73% 0 mm 202 W/m2
13:59 5.3 °C 0.8 °C 1013.1 hPa North 4.8 km/h 17.7 km/h 73% 0 mm 221 W/m2
14:04 5.4 °C 0.8 °C 1013.1 hPa NNW 2.7 km/h 17.7 km/h 72.6% 0 mm 193 W/m2
14:09 5.4 °C 0.8 °C 1013.1 hPa NW 3.5 km/h 14.5 km/h 72.2% 0 mm 216 W/m2
14:14 5.4 °C 0.7 °C 1013.1 hPa NNW 4.3 km/h 14.5 km/h 71.5% 0 mm 83 W/m2
14:19 5.3 °C 0.4 °C 1013.1 hPa NNW 5.1 km/h 19.3 km/h 71% 0 mm 40 W/m2
14:24 5 °C 0.3 °C 1013.1 hPa NNW 3.1 km/h 19.3 km/h 71.7% 0 mm 60 W/m2
14:29 4.8 °C 0.3 °C 1013.1 hPa NNW 2.3 km/h 19.3 km/h 72.6% 0 mm 46 W/m2
14:30 4.7 °C 0.3 °C 1013.1 hPa NNW 4.8 km/h 19.3 km/h 73% 0 mm 33 W/m2
15:00 4.1 °C 0.1 °C 1012.8 hPa NW 3.2 km/h 14.5 km/h 75% 0 mm 32 W/m2
15:30 4.2 °C 0 °C 1013.1 hPa NNW 1.6 km/h 11.3 km/h 74% 0 mm 23 W/m2
16:04 4.1 °C 0.2 °C 1013.1 hPa North 1 km/h 11.3 km/h 75.8% 0 mm 23 W/m2
16:09 4 °C 0.2 °C 1013.1 hPa NNE 0.3 km/h 6.4 km/h 76% 0 mm 9 W/m2
16:14 3.9 °C 0.1 °C 1013.1 hPa Calm   6.4 km/h 76% 0 mm 7 W/m2
16:19 3.9 °C 0.1 °C 1013.1 hPa North 0.6 km/h 6.4 km/h 76% 0 mm 7 W/m2
16:24 3.8 °C 0.2 °C 1013.1 hPa Calm   6.4 km/h 77% 0 mm 7 W/m2
16:29 3.7 °C 0.1 °C 1013.1 hPa NNW 0.2 km/h 6.4 km/h 77% 0 mm 5 W/m2
16:34 3.6 °C 0.1 °C 1013.1 hPa Calm   6.4 km/h 77.3% 0 mm 0 W/m2
16:39 3.6 °C 0.1 °C 1013.1 hPa Calm     78% 0 mm 0 W/m2
16:44 3.4 °C 0 °C 1013.1 hPa NNW 1.1 km/h 6.4 km/h 78% 0 mm 0 W/m2
16:49 3.3 °C 0.1 °C 1013.1 hPa Calm   6.4 km/h 78.9% 0 mm 0 W/m2
16:54 3.3 °C -0.1 °C 1013.1 hPa Calm   6.4 km/h 79% 0 mm 0 W/m2
16:59 3.2 °C -0.1 °C 1013.1 hPa Calm   6.4 km/h 79.4% 0 mm 0 W/m2
17:04 3.1 °C -0.1 °C 1013.1 hPa Calm   6.4 km/h 80% 0 mm 0 W/m2
17:09 2.9 °C -0.2 °C 1013.1 hPa Calm     80% 0 mm 0 W/m2
17:14 2.8 °C -0.2 °C 1013.1 hPa Calm     80.6% 0 mm 0 W/m2
17:19 2.8 °C -0.2 °C 1013.4 hPa Calm   1.6 km/h 81% 0 mm 0 W/m2
17:24 2.7 °C -0.1 °C 1013.4 hPa Calm   1.6 km/h 81.9% 0 mm 0 W/m2
17:29 2.6 °C -0.2 °C 1013.4 hPa Calm   1.6 km/h 82% 0 mm 0 W/m2
17:34 2.5 °C -0.2 °C 1013.4 hPa Calm   1.6 km/h 82.5% 0 mm 0 W/m2
17:39 2.4 °C -0.1 °C 1013.4 hPa Calm     83% 0 mm 0 W/m2
17:44 2.4 °C -0.2 °C 1013.4 hPa NNW 0.2 km/h 3.2 km/h 83% 0 mm 0 W/m2
17:49 2.3 °C -0.2 °C 1013.4 hPa NNW 0.2 km/h 3.2 km/h 83.3% 0 mm 0 W/m2
17:54 2.3 °C -0.1 °C 1013.4 hPa Calm   3.2 km/h 84% 0 mm 0 W/m2
17:59 2.2 °C -0.2 °C 1013.4 hPa NNW 0.2 km/h 3.2 km/h 84% 0 mm 0 W/m2
18:04 2.2 °C -0.2 °C 1013.4 hPa Calm   3.2 km/h 84% 0 mm 0 W/m2
18:09 2.2 °C -0.2 °C 1013.4 hPa Calm   3.2 km/h 84.5% 0 mm 0 W/m2
18:14 2.1 °C -0.2 °C 1013.8 hPa NNW 0.2 km/h 3.2 km/h 85% 0 mm 0 W/m2
18:19 2 °C -0.2 °C 1013.8 hPa Calm   3.2 km/h 85% 0 mm 0 W/m2
18:24 1.9 °C -0.3 °C 1013.8 hPa Calm   3.2 km/h 85% 0 mm 0 W/m2
18:29 1.9 °C -0.4 °C 1013.8 hPa Calm   3.2 km/h 85% 0 mm 0 W/m2
18:34 1.8 °C -0.4 °C 1013.4 hPa Calm   3.2 km/h 85% 0 mm 0 W/m2
18:39 1.8 °C -0.3 °C 1013.8 hPa Calm     86% 0 mm 0 W/m2
18:44 1.8 °C -0.3 °C 1013.8 hPa Calm     86% 0 mm 0 W/m2
18:49 1.8 °C -0.3 °C 1013.4 hPa NNW 0.8 km/h 3.2 km/h 86% 0 mm 0 W/m2
18:54 1.7 °C -0.3 °C 1013.4 hPa NNW 0.2 km/h 6.4 km/h 86% 0 mm 0 W/m2
18:59 1.7 °C -0.4 °C 1013.4 hPa NNW 1 km/h 6.4 km/h 86% 0 mm 0 W/m2
19:04 1.7 °C -0.4 °C 1013.4 hPa NNW 0.6 km/h 6.4 km/h 86% 0 mm 0 W/m2
19:09 1.6 °C -0.4 °C 1013.4 hPa NNW 0.3 km/h 4.8 km/h 86.3% 0 mm 0 W/m2
19:14 1.6 °C -0.4 °C 1013.4 hPa Calm   4.8 km/h 87% 0 mm 0 W/m2
19:19 1.5 °C -0.4 °C 1013.4 hPa Calm   4.8 km/h 87% 0 mm 0 W/m2
19:24 1.4 °C -0.5 °C 1013.4 hPa Calm   4.8 km/h 87% 0 mm 0 W/m2
19:29 1.4 °C -0.6 °C 1013.4 hPa Calm   4.8 km/h 87% 0 mm 0 W/m2
19:34 1.3 °C -0.6 °C 1013.4 hPa Calm   4.8 km/h 87% 0 mm 0 W/m2
19:39 1.3 °C -0.5 °C 1013.1 hPa Calm   1.6 km/h 87.6% 0 mm 0 W/m2
19:44 1.3 °C -0.5 °C 1013.1 hPa Calm   1.6 km/h 88% 0 mm 0 W/m2
19:49 1.3 °C -0.5 °C 1013.1 hPa Calm   1.6 km/h 88% 0 mm 0 W/m2
19:54 1.2 °C -0.6 °C 1013.1 hPa Calm   1.6 km/h 88% 0 mm 0 W/m2
19:59 1.2 °C -0.6 °C 1013.1 hPa Calm   1.6 km/h 88% 0 mm 0 W/m2
20:04 1.2 °C -0.6 °C 1013.1 hPa Calm     88% 0 mm 0 W/m2
20:09 1.1 °C -0.6 °C 1013.1 hPa Calm     88% 0 mm 0 W/m2
20:12 1.1 °C -0.6 °C 1013.1 hPa Calm     88.7% 0 mm 0 W/m2
20:19 1.2 °C -0.4 °C 1013.4 hPa Calm     89% 0 mm 0 W/m2
20:24 1.2 °C -0.4 °C 1013.4 hPa Calm     89% 0 mm 0 W/m2
20:29 1.3 °C -0.3 °C 1013.4 hPa Calm     89% 0 mm 0 W/m2
20:34 1.3 °C -0.3 °C 1013.4 hPa Calm     89.5% 0 mm 0 W/m2
20:39 1.3 °C -0.2 °C 1013.4 hPa Calm     89.7% 0 mm 0 W/m2
20:44 1.3 °C -0.3 °C 1013.1 hPa Calm     89.2% 0 mm 0 W/m2
20:49 1.3 °C -0.3 °C 1013.1 hPa Calm     89% 0 mm 0 W/m2
20:54 1.2 °C -0.4 °C 1013.1 hPa Calm     89% 0 mm 0 W/m2
20:59 1 °C -0.7 °C 1013.1 hPa Calm     88.6% 0 mm 0 W/m2
21:04 0.8 °C -0.8 °C 1013.4 hPa Calm     89% 0 mm 0 W/m2
21:09 0.8 °C -0.8 °C 1013.4 hPa Calm     89% 0 mm 0 W/m2
21:14 0.7 °C -0.9 °C 1013.4 hPa Calm     89% 0 mm 0 W/m2
21:19 0.6 °C -1.1 °C 1013.4 hPa Calm     89% 0 mm 0 W/m2
21:24 0.4 °C -1.1 °C 1013.4 hPa Calm     89.2% 0 mm 0 W/m2
21:25 0.4 °C -1.1 °C 1013.4 hPa Calm     90% 0 mm 0 W/m2
21:30 0.3 °C -1.1 °C 1013.4 hPa Calm     90% 0 mm 0 W/m2
22:00 0.4 °C -0.9 °C 1013.4 hPa Calm     91% 0 mm 0 W/m2
22:30 0.2 °C -1.1 °C 1013.1 hPa Calm     91% 0 mm 0 W/m2
23:04 0.3 °C -0.8 °C 1013.1 hPa Calm     91.9% 0 mm 0 W/m2
23:09 0.4 °C -0.8 °C 1013.1 hPa Calm     92% 0 mm 0 W/m2
23:14 0.4 °C -0.7 °C 1013.1 hPa Calm     92% 0 mm 0 W/m2
23:19 0.4 °C -0.7 °C 1013.1 hPa Calm     92% 0 mm 0 W/m2
23:24 0.5 °C -0.7 °C 1013.1 hPa Calm     92% 0 mm 0 W/m2
23:29 0.6 °C -0.6 °C 1013.1 hPa Calm     92% 0 mm 0 W/m2
23:34 0.6 °C -0.6 °C 1012.8 hPa Calm     92% 0 mm 0 W/m2
23:39 0.6 °C -0.6 °C 1012.8 hPa Calm     92% 0 mm 0 W/m2
23:44 0.7 °C -0.5 °C 1012.8 hPa Calm     92% 0 mm 0 W/m2
23:49 0.7 °C -0.5 °C 1012.8 hPa Calm     92% 0 mm 0 W/m2
23:54 0.7 °C -0.4 °C 1012.8 hPa Calm     92% 0 mm 0 W/m2
23:59 0.7 °C -0.4 °C 1012.8 hPa Calm     92% 0 mm 0 W/m2
Hartford County Weather
Compliments of Weather Underground - 2 mb